Location: Newark
(44.3867°N, 6.6531°E)
Time: 06:34:24
(UTC+00:00)

Envisat - Pass Details

Date: 24 January 2020
Orbit: 764 x 766 km, 98.1° (Epoch: 27 February)

Event Time Altitude Azimuth Distance (km) Brightness Sun altitude
Rises 05:09:13 0° 27° (NNE) 3,242 6.5 -19.7°
Reaches altitude 10° 05:12:09 10° 44° (NE) 2,310 5.9 -19.2°
Maximum altitude 05:15:51 20° 91° (E) 1,713 5.8 -18.5°
Drops below altitude 10° 05:19:31 10° 138° (SE) 2,296 6.2 -17.9°
Sets 05:22:24 0° 155° (SSE) 3,217 6.7 -17.4°
